Location: Camp at the Woods
(43.2055°N, 93.0905°W)
Time: 06:45:50
(UTC+00:00)

CENTAUR R/B - Pass Details

Date: 05 December 2023
Orbit: 677 x 1508 km, 63.4° (Epoch: 26 January)

Event Time Altitude Azimuth Distance (km) Brightness Sun altitude
Exits shadow 12:33:43 - 324° (NW) 3,731 5.0 -9.8°
Reaches altitude 10° 12:34:59 10° 326° (NW) 3,316 4.8 -9.6°
Maximum altitude 12:43:21 76° 52° (NE) 1,479 3.5 -8.2°
Drops below altitude 10° 12:52:37 10° 138° (SE) 3,657 6.7 -6.6°
Sets 12:55:40 0° 140° (SE) 4,633 7.4 -6.1°
